Greenwich, CT

4:10 AM EST on February 20, 2017 (GMT -0500)
Westchester County

Weather History for KHPN - March, 2014

Change the Weather History Date:

Wednesday, March 19, 2014

  Actual Average Record
Temperature  
Mean Temperature 34 °F -  
Max Temperature 41 °F 44 °F 73 °F (2012)
Min Temperature 27 °F 29 °F 7 °F (1993)
Degree Days  
Heating Degree Days 31    
Moisture  
Dew Point 29 °F    
Average Humidity 82    
Maximum Humidity 100    
Minimum Humidity 57    
Precipitation  
Precipitation 0.63 in - - ()
Sea Level Pressure  
Sea Level Pressure 30.14 in    
Wind  
Wind Speed 6 mph (East)    
Max Wind Speed 14 mph    
Max Gust Speed 20 mph    
Visibility 7 miles    
Events Rain    
Averages and records for this station are not official NWS values.
T = Trace of Precipitation, MM = Missing Value Source: NWS Daily Summary

Daily Weather History Graph

Daily Weather History Graph

Search for Another Location

Airport or City:

Trip Planner

Search our weather history database for the weather conditions in past years. The results will help you decide how hot, cold, wet, or windy it might be!

Date:

Astronomy

Mar. 19, 2014 Rise Set
Actual Time 6:59 AM EDT 7:05 PM EDT
Civil Twilight 6:32 AM EDT 7:33 PM EDT
Nautical Twilight 6:00 AM EDT 8:05 PM EDT
Astronomical Twilight 5:27 AM EDT 8:38 PM EDT
Moon 10:23 PM EDT (3/19) 8:22 AM EDT (3/19)
Length of Visible Light 13h 00m
Length of Day
12h 05m
Waning Gibbous, 91% of the Moon is Illuminated
Mar 19
Waning Gibbous
Mar 23
Last Quarter
Mar 30
New
Apr 7
First Quarter
Apr 15
Full

Hourly Weather History & Observations

Time (EDT) Temp. Windchill Dew Point Humidity Pressure Visibility Wind Dir Wind Speed Gust Speed Precip Events Conditions
12:56 AM 28.9 °F - 23.0 °F 78% 30.30 in 10.0 mi Calm Calm - N/A   Clear
1:56 AM 28.0 °F - 23.0 °F 81% 30.28 in 10.0 mi Calm Calm - N/A   Clear
2:56 AM 28.0 °F 24.2 °F 23.0 °F 81% 30.28 in 10.0 mi East 3.5 mph - N/A   Clear
3:56 AM 27.0 °F 21.6 °F 23.0 °F 85% 30.28 in 10.0 mi NE 4.6 mph - N/A   Clear
4:56 AM 27.0 °F 23.0 °F 21.9 °F 81% 30.29 in 10.0 mi ENE 3.5 mph - N/A   Clear
5:56 AM 27.0 °F 21.6 °F 21.9 °F 81% 30.30 in 10.0 mi ENE 4.6 mph - N/A   Mostly Cloudy
6:56 AM 28.0 °F 21.7 °F 23.0 °F 81% 30.32 in 10.0 mi ENE 5.8 mph - N/A   Mostly Cloudy
7:56 AM 28.9 °F 21.1 °F 23.0 °F 78% 30.32 in 10.0 mi East 8.1 mph - N/A   Mostly Cloudy
8:56 AM 30.0 °F 21.1 °F 23.0 °F 75% 30.30 in 10.0 mi East 10.4 mph - N/A   Mostly Cloudy
9:56 AM 32.0 °F 24.2 °F 25.0 °F 75% 30.29 in 10.0 mi ESE 9.2 mph - N/A   Mostly Cloudy
10:56 AM 33.1 °F 25.5 °F 25.0 °F 72% 30.29 in 10.0 mi East 9.2 mph - N/A   Overcast
11:56 AM 36.0 °F 28.5 °F 27.0 °F 70% 30.26 in 10.0 mi ENE 10.4 mph - N/A   Overcast
12:56 PM 37.9 °F 30.9 °F 27.0 °F 65% 30.23 in 10.0 mi ESE 10.4 mph - N/A   Overcast
1:56 PM 41.0 °F 33.9 °F 27.0 °F 57% 30.20 in 10.0 mi ESE 12.7 mph 17.3 mph N/A   Overcast
2:56 PM 41.0 °F 34.3 °F 28.0 °F 60% 30.15 in 10.0 mi ESE 11.5 mph - N/A   Overcast
3:56 PM 39.9 °F 32.1 °F 28.9 °F 65% 30.12 in 10.0 mi East 13.8 mph 19.6 mph N/A   Overcast
4:46 PM 37.4 °F 29.3 °F 30.2 °F 75% 30.07 in 4.0 mi East 12.7 mph - 0.00 in Rain Light Rain
4:56 PM 37.0 °F 29.8 °F 32.0 °F 82% 30.09 in 5.0 mi ESE 10.4 mph 19.6 mph 0.01 in Rain Light Rain
5:56 PM 36.0 °F 28.5 °F 33.1 °F 89% 30.06 in 6.0 mi East 10.4 mph - 0.00 in Rain Light Rain
6:06 PM 35.6 °F 28.0 °F 33.8 °F 93% 30.02 in 6.0 mi East 10.4 mph 18.4 mph 0.00 in Rain Light Rain
6:56 PM 36.0 °F 29.6 °F 33.1 °F 89% 30.04 in 5.0 mi East 8.1 mph - 0.00 in Rain Light Rain
7:17 PM 35.6 °F 28.0 °F 33.8 °F 93% 30.00 in 2.5 mi East 10.4 mph - 0.01 in Rain Light Rain
7:56 PM 36.0 °F 28.0 °F 33.1 °F 89% 30.00 in 2.5 mi East 11.5 mph - 0.06 in Rain Light Rain
8:38 PM 35.6 °F 28.6 °F 33.8 °F 93% 29.94 in 2.5 mi East 9.2 mph - 0.02 in   Overcast
8:56 PM 36.0 °F 28.5 °F 34.0 °F 93% 29.94 in 2.5 mi East 10.4 mph - 0.02 in   Overcast
9:56 PM 36.0 °F 27.5 °F 34.0 °F 93% 29.91 in 2.5 mi East 12.7 mph 19.6 mph 0.12 in Rain Light Rain
10:56 PM 37.9 °F 34.4 °F 37.0 °F 97% 29.91 in 2.0 mi Variable 4.6 mph - 0.18 in Rain Heavy Rain
11:17 PM 37.4 °F 32.8 °F 37.4 °F 100% 29.87 in 4.0 mi ENE 5.8 mph - 0.08 in Rain Light Rain
11:56 PM 37.9 °F 33.5 °F 37.0 °F 97% 29.86 in 4.0 mi East 5.8 mph - 0.24 in Rain Light Rain